Wind_Speed
2 1 1 2 1 2 1 2 2 2 2 3 3 3 3 4 4 4 4 5 5 5 5 5 6 6 5 6 7 8 8 7 6 6 6 7 8 8 8 8 8 8 7
1 1 1 1 1 2 2 3 3 3 4 4 5 5 5 5 5 5 5 5 6 6 6 6 7 7 7 7 8 8 8 8 7 7 7 7 8 8 8 8 8 8 8
1 2 2 3 3 3 3 3 4 4 4 5 5 6 6 6 6 6 6 6 6 7 7 7 8 8 8 9 9 9 9 9 8 8 8 8 8 8 8 8 8 8 8
2 2 2 3 3 3 4 4 4 5 5 6 6 7 7 7 7 8 8 8 7 8 8 9 8 8 8 9 10 9 9 9 9 9 9 9 9 9 9 9 9 9 9
3 3 4 4 4 4 5 5 5 6 6 6 6 7 7 8 8 9 9 9 9 8 9 10 10 9 9 9 10 10 10 10 10 10 10 10 10 10 10 10 9 10 10
4 4 5 5 5 6 6 6 6 6 7 7 7 7 7 8 8 9 10 10 10 10 10 10 11 10 10 10 10 10 11 10 11 11 11 11 11 11 11 11 10 10 10
5 5 5 6 7 7 7 7 7 8 8 8 8 8 8 8 9 10 10 10 11 11 12 11 11 11 11 11 11 12 12 12 12 12 12 12 11 11 12 12 11 11 11
5 6 6 6 7 7 7 7 8 9 9 8 9 9 9 10 10 11 12 12 12 12 12 13 13 13 12 12 13 13 13 13 13 13 13 13 13 13 13 13 12 12 12
6 6 7 7 7 8 8 8 9 9 10 10 10 10 11 11 11 12 13 14 14 13 14 14 14 14 14 14 14 14 14 14 14 15 14 14 14 13 14 14 14 14 14
7 7 8 8 9 9 9 10 10 10 11 11 11 11 12 12 13 14 14 14 14 14 15 15 16 16 15 15 15 16 15 15 15 15 15 15 15 15 15 15 15 15 15
8 9 9 10 10 11 11 11 11 11 12 12 13 12 12 13 14 13 14 14 15 15 15 16 16 17 17 16 16 17 16 16 16 17 16 16 16 17 16 16 16 16 16
9 9 10 11 11 12 12 13 13 13 13 13 13 13 13 13 13 13 14 15 16 16 16 16 16 17 18 18 18 18 17 17 17 17 17 17 17 17 18 17 17 17 17
10 10 11 12 12 13 13 14 14 14 14 13 13 14 14 15 14 14 14 15 15 16 16 17 17 18 18 20 20 19 19 19 19 19 18 18 18 19 19 18 18 19 19
11 12 12 13 13 13 14 14 15 15 15 15 16 15 16 16 15 15 15 15 15 16 16 17 17 18 18 20 21 21 21 20 21 20 20 19 19 20 21 20 20 20 20
13 13 13 13 14 14 15 15 15 15 16 16 16 16 17 17 16 16 15 14 14 15 17 18 18 19 20 20 21 22 22 22 21 21 22 21 21 21 22 23 22 21 21
14 14 15 15 15 15 15 15 16 16 16 17 17 17 18 17 16 16 16 17 17 17 17 18 19 20 21 22 22 22 23 23 23 23 23 23 23 23 23 24 23 23 22
16 16 16 17 16 16 16 16 17 17 18 18 18 19 18 18 18 18 18 18 18 18 18 19 20 21 21 22 23 23 23 24 24 24 24 23 24 24 24 25 24 23 23
17 17 18 18 17 17 17 17 18 18 18 18 18 18 18 18 19 19 20 19 19 19 19 19 20 21 21 22 22 23 24 25 25 25 25 25 25 25 25 24 23 23 23
18 18 18 18 18 18 18 18 19 19 19 19 19 19 19 19 20 21 21 20 20 20 20 20 20 21 22 22 22 23 24 24 25 25 26 26 26 26 26 25 23 23 23
20 20 20 20 19 19 19 20 20 21 21 21 22 21 21 21 21 22 21 21 22 21 22 22 21 21 22 23 23 23 24 24 25 25 25 26 26 25 25 25 25 25 24
21 21 21 21 20 20 21 21 22 23 23 23 23 23 22 22 22 22 22 22 22 23 23 23 23 22 22 23 24 25 25 24 24 25 25 25 26 26 25 25 25 26 26
21 22 22 22 22 22 22 23 24 24 24 24 24 23 23 23 23 24 24 24 25 25 25 24 24 24 24 24 24 25 25 25 25 25 25 25 26 25 25 25 25 25 26
22 22 23 22 22 23 24 24 25 25 25 25 25 25 25 24 25 25 25 25 26 25 25 26 26 26 25 25 25 25 26 26 25 25 25 24 25 25 25 25 25 25 25
23 23 23 23 24 24 24 24 24 24 24 25 25 26 26 26 26 26 26 26 27 27 27 27 26 26 26 26 26 26 26 26 25 25 25 25 25 26 26 25 25 25 25
24 24 24 24 24 24 24 24 24 24 24 25 26 26 26 26 26 27 27 27 27 27 26 26 26 26 26 26 26 26 26 25 25 25 25 25 25 25 25 25 26 26 26
25 24 24 24 23 24 24 25 25 25 25 25 26 26 26 27 27 27 27 27 26 26 26 26 26 26 26 26 26 26 25 25 24 24 24 25 25 25 25 25 26 27 27
Wind_Direction
73 61 25 17 22 8 340 304 283 272 260 256 254 258 255 252 255 259 257 254 251 253 251 247 249 250 246 240 239 236 235 235 234 238 245 248 247 238 239 240 239 239 239
18 360 324 317 324 319 312 308 295 281 275 261 254 260 264 259 256 259 258 258 258 260 259 253 249 249 246 239 241 238 237 234 234 240 245 251 250 247 245 246 247 245 247
324 315 305 307 313 309 308 306 298 285 286 278 268 265 261 258 260 259 260 261 262 261 258 254 249 251 249 242 241 243 241 234 235 238 243 249 253 255 251 250 249 248 248
303 299 296 302 305 303 305 308 305 298 297 289 277 270 264 260 259 260 263 264 263 261 260 258 253 252 252 245 243 247 247 238 237 240 245 249 253 253 251 254 251 251 251
300 296 290 294 293 291 297 305 309 304 300 292 280 272 272 267 265 263 263 266 263 262 264 261 257 256 254 252 253 252 248 243 240 243 247 251 252 255 255 256 254 253 253
303 303 294 290 289 288 289 293 297 302 299 292 286 278 274 271 270 270 269 266 263 262 263 262 260 258 257 254 254 256 254 253 247 245 247 250 253 254 252 255 256 255 255
304 302 305 300 293 287 285 286 289 294 296 293 288 282 277 276 273 272 271 270 269 265 263 262 260 261 258 256 256 257 258 257 256 252 250 251 253 252 250 251 254 255 257
295 290 290 295 299 294 288 288 289 289 292 294 289 282 279 276 275 274 272 272 268 267 266 263 262 261 260 258 258 258 255 256 258 256 254 254 255 253 251 251 253 255 257
287 281 285 288 291 294 296 299 297 292 289 290 288 283 279 277 279 278 277 276 271 267 265 265 263 260 259 260 260 261 258 255 257 255 254 254 254 252 251 252 254 254 256
285 287 289 287 286 289 294 298 299 296 293 290 288 285 282 280 281 281 278 276 274 270 266 265 263 260 260 260 259 260 260 259 259 259 257 255 253 251 252 254 255 256 257
287 285 288 286 285 286 289 292 295 296 294 292 288 286 284 283 283 278 276 274 272 271 270 269 264 261 261 262 262 262 261 260 260 259 260 258 255 254 254 253 254 255 255
289 285 286 285 283 284 285 287 289 292 293 290 288 286 285 285 281 278 276 273 272 271 271 269 267 266 265 264 262 260 260 261 262 260 260 259 259 257 254 254 254 256 257
289 289 288 287 285 282 283 286 289 291 290 289 288 287 285 284 284 283 279 274 271 269 269 267 266 266 265 264 262 260 262 261 261 262 263 263 263 262 257 258 258 258 258
290 292 291 291 287 285 283 285 289 291 290 291 289 286 285 284 284 284 283 279 273 269 269 268 268 267 266 265 264 262 263 263 261 261 262 263 264 264 261 261 261 259 259
288 291 291 291 287 286 285 285 286 290 288 291 290 286 284 284 283 283 283 281 277 271 269 268 267 267 267 266 266 264 263 263 262 261 261 262 264 264 262 261 261 259 258
286 289 290 290 287 286 285 289 287 290 290 291 289 287 285 284 284 283 282 281 281 278 272 270 269 270 267 265 266 267 265 264 263 263 263 261 262 263 262 261 260 260 259
291 291 289 289 289 287 288 288 289 290 291 291 289 288 286 284 284 282 282 282 281 280 277 272 273 271 270 268 266 266 267 266 262 262 263 263 263 264 264 261 260 260 259
296 293 292 291 291 288 289 288 289 289 289 290 290 288 285 283 284 284 283 283 281 279 279 278 273 273 273 272 271 269 267 265 262 262 263 264 264 263 261 260 259 259 257
296 295 296 295 291 289 288 287 288 289 288 288 288 286 287 284 283 284 283 282 280 278 278 279 278 276 273 273 273 271 270 267 265 264 263 263 262 261 258 257 257 256 254
294 294 293 293 290 288 288 288 288 288 288 288 287 288 289 286 285 284 282 281 281 279 279 277 278 278 277 274 273 272 271 272 270 267 264 263 261 259 256 255 255 255 255
292 292 292 291 288 286 286 287 287 287 287 288 288 287 286 286 285 286 284 282 281 281 281 280 280 280 277 277 277 274 272 272 272 269 266 264 261 259 256 256 255 254 255
292 293 290 290 288 286 286 287 288 286 287 288 287 286 286 286 285 284 285 282 279 280 280 280 280 280 278 277 277 276 274 272 270 267 265 262 260 257 256 255 254 254 254
292 291 292 290 291 289 288 287 288 286 288 290 289 287 287 285 285 284 285 284 282 281 279 280 280 280 280 277 275 275 274 272 268 266 264 262 260 257 256 255 253 253 253
290 291 291 291 291 291 290 289 288 288 288 288 289 288 287 286 285 285 284 283 282 282 281 280 279 278 278 279 276 275 273 270 267 264 261 260 261 259 256 253 253 253 254
290 290 291 291 291 291 290 288 287 287 287 287 287 288 288 287 287 287 285 283 283 284 282 280 279 278 277 278 277 276 275 271 267 264 261 260 260 260 257 255 254 255 256
288 289 289 290 291 291 290 289 286 285 286 287 288 289 288 288 288 287 285 283 283 284 284 282 280 278 276 277 276 276 275 271 266 262 260 259 259 260 260 258 257 256 256
Height
5880 5881 5881 5881 5881 5881 5881 5881 5881 5881 5880 5880 5880 5881 5881 5881 5881 5881 5881 5882 5882 5882 5883 5883 5884 5884 5884 5884 5885 5886 5886 5887 5887 5888 5889 5889 5890 5890 5891 5892 5892 5893 5893
5880 5880 5880 5881 5881 5881 5881 5880 5880 5880 5879 5879 5879 5879 5879 5880 5880 5880 5880 5881 5881 5881 5881 5882 5882 5883 5883 5883 5884 5884 5885 5885 5886 5887 5887 5888 5888 5889 5890 5890 5891 5892 5892
5880 5880 5880 5880 5880 5880 5880 5880 5879 5879 5878 5878 5878 5878 5878 5878 5879 5879 5879 5879 5879 5880 5880 5880 5880 5881 5881 5881 5882 5882 5883 5884 5884 5885 5886 5886 5887 5887 5888 5889 5889 5890 5890
5879 5879 5879 5879 5879 5879 5879 5879 5878 5878 5877 5877 5877 5876 5877 5877 5877 5877 5877 5877 5878 5878 5878 5878 5878 5879 5879 5879 5880 5880 5881 5882 5882 5883 5884 5884 5885 5886 5886 5887 5887 5888 5888
5878 5878 5878 5878 5878 5878 5878 5877 5877 5876 5876 5875 5875 5875 5875 5875 5875 5875 5875 5875 5876 5876 5876 5876 5876 5877 5877 5878 5878 5878 5879 5879 5880 5881 5881 5882 5883 5883 5884 5884 5885 5885 5886
5877 5877 5877 5877 5876 5877 5876 5876 5876 5875 5874 5874 5873 5873 5873 5873 5873 5873 5873 5873 5873 5873 5874 5874 5874 5874 5875 5876 5876 5876 5877 5877 5877 5878 5879 5879 5880 5880 5881 5882 5882 5883 5883
5876 5876 5876 5876 5875 5875 5875 5875 5874 5873 5872 5872 5871 5871 5871 5871 5871 5871 5871 5870 5870 5870 5871 5871 5871 5872 5872 5873 5873 5873 5874 5874 5874 5875 5876 5876 5877 5877 5878 5879 5879 5880 5881
5874 5874 5874 5874 5874 5873 5873 5873 5872 5871 5871 5870 5869 5869 5869 5869 5868 5868 5868 5867 5867 5867 5868 5868 5868 5869 5869 5870 5870 5870 5871 5871 5872 5872 5872 5873 5873 5874 5875 5876 5876 5877 5878
5873 5873 5873 5872 5872 5872 5871 5870 5870 5869 5868 5868 5867 5866 5866 5865 5865 5865 5864 5864 5864 5864 5864 5865 5865 5865 5866 5866 5866 5867 5867 5868 5868 5869 5869 5869 5870 5871 5872 5872 5873 5874 5874
5871 5871 5870 5870 5870 5869 5869 5868 5867 5866 5866 5865 5864 5863 5863 5862 5862 5862 5861 5860 5860 5860 5860 5861 5861 5862 5862 5862 5863 5863 5863 5864 5864 5865 5865 5866 5866 5867 5868 5869 5869 5870 5871
5869 5868 5868 5868 5867 5867 5866 5865 5865 5864 5863 5862 5861 5860 5859 5859 5858 5858 5857 5857 5857 5857 5857 5857 5857 5857 5858 5858 5858 5859 5859 5860 5860 5860 5861 5861 5862 5863 5863 5864 5865 5866 5866
5866 5866 5865 5865 5864 5864 5863 5862 5861 5860 5859 5859 5858 5857 5856 5855 5854 5854 5853 5853 5853 5853 5853 5852 5852 5853 5853 5853 5854 5854 5855 5855 5856 5856 5857 5857 5858 5858 5859 5860 5860 5861 5862
5864 5863 5862 5861 5861 5860 5859 5859 5858 5857 5856 5855 5854 5853 5852 5851 5850 5850 5849 5849 5848 5848 5848 5848 5848 5848 5848 5848 5849 5849 5850 5850 5851 5851 5852 5853 5853 5854 5854 5855 5856 5857 5857
5860 5860 5859 5858 5857 5856 5856 5855 5854 5853 5852 5851 5850 5849 5848 5847 5846 5845 5845 5844 5844 5843 5843 5843 5843 5843 5843 5843 5844 5844 5844 5845 5846 5846 5847 5848 5848 5849 5849 5850 5850 5851 5852
5857 5856 5855 5854 5853 5852 5851 5851 5850 5849 5847 5847 5846 5844 5843 5842 5841 5841 5840 5840 5840 5839 5839 5838 5838 5838 5838 5838 5838 5839 5839 5840 5840 5841 5841 5842 5843 5843 5844 5844 5845 5846 5846
5853 5852 5851 5850 5849 5848 5847 5846 5845 5844 5843 5842 5841 5840 5839 5838 5837 5837 5836 5836 5835 5835 5834 5834 5833 5832 5832 5832 5832 5833 5833 5834 5834 5835 5835 5836 5836 5837 5837 5838 5839 5839 5840
5849 5848 5847 5846 5845 5844 5843 5842 5841 5840 5839 5838 5837 5835 5834 5834 5833 5832 5831 5831 5830 5830 5830 5829 5828 5827 5826 5826 5826 5826 5827 5827 5828 5828 5829 5829 5830 5830 5831 5831 5832 5833 5834
5845 5844 5843 5841 5840 5839 5838 5837 5836 5835 5834 5833 5832 5831 5830 5829 5828 5827 5827 5826 5825 5824 5824 5824 5823 5821 5821 5820 5820 5820 5820 5820 5821 5821 5822 5822 5823 5823 5824 5825 5825 5827 5828
5840 5839 5838 5837 5836 5834 5833 5832 5831 5830 5829 5828 5827 5825 5824 5823 5823 5822 5821 5820 5819 5819 5818 5818 5817 5816 5815 5814 5813 5813 5813 5813 5813 5814 5814 5815 5815 5816 5817 5818 5819 5820 5821
5835 5834 5832 5831 5830 5829 5828 5827 5826 5825 5824 5823 5821 5820 5819 5818 5817 5816 5815 5814 5813 5812 5812 5811 5810 5810 5809 5808 5807 5806 5806 5806 5806 5806 5806 5807 5808 5808 5809 5811 5812 5813 5814
5830 5828 5827 5826 5825 5824 5823 5821 5820 5819 5818 5817 5815 5814 5813 5812 5811 5810 5809 5808 5807 5806 5805 5804 5803 5803 5802 5801 5800 5799 5799 5798 5798 5798 5799 5799 5800 5801 5802 5803 5805 5806 5807
5824 5823 5821 5820 5819 5818 5817 5816 5814 5813 5812 5811 5809 5808 5807 5806 5805 5804 5802 5801 5800 5799 5798 5797 5796 5795 5794 5793 5792 5792 5791 5791 5791 5791 5791 5792 5792 5793 5794 5796 5797 5798 5800
5819 5818 5816 5814 5813 5811 5810 5809 5808 5806 5805 5804 5803 5802 5800 5799 5798 5796 5795 5794 5793 5791 5791 5790 5789 5788 5787 5786 5785 5784 5783 5783 5783 5783 5783 5784 5785 5787 5788 5789 5790 5791 5792
5813 5812 5810 5809 5807 5805 5803 5802 5801 5799 5798 5797 5796 5795 5793 5792 5790 5789 5788 5786 5785 5784 5783 5782 5781 5780 5779 5778 5777 5776 5775 5775 5775 5775 5776 5777 5778 5779 5780 5781 5783 5784 5785
5807 5805 5804 5802 5800 5799 5797 5795 5794 5793 5791 5790 5789 5788 5786 5785 5784 5782 5780 5779 5777 5776 5775 5774 5773 5772 5771 5769 5768 5768 5767 5767 5767 5768 5768 5769 5770 5771 5773 5774 5775 5777 5778
5800 5798 5797 5795 5794 5792 5790 5788 5786 5785 5784 5783 5782 5781 5779 5777 5776 5774 5773 5771 5770 5769 5767 5765 5764 5763 5762 5761 5761 5760 5759 5759 5759 5760 5761 5761 5763 5763 5765 5766 5767 5768 5770